Regional Weather Roundup
Issued by NWS

Home | Current Version | Previous Version | Graphics & Text | Print | Product List | Glossary Off
Versions: 1 2 3 4 5 6 7 8 9 10 11 12 13 14 15 16 17 18 19 20 21 22 23 24 25 26 27 28 29 30 31 32 33 34 35 36 37 38 39 40 41 42 43 44 45 46 47 48 49 50

000
ASUS43 KTOP 112208
RWRKS

WEATHER ROUNDUP FOR KANSAS
NATIONAL WEATHER SERVICE GOODLAND KS
400 PM CST THU FEB 11 2016

NOTE:  "FAIR" INDICATES FEW OR NO CLOUDS BELOW 12,000 FEET WITH NO
SIGNIFICANT WEATHER AND/OR OBSTRUCTIONS TO VISIBILITY.

KSZ001>006-013>018-027>032-041>047-112300-
NORTHWEST KANSAS

CITY           SKY/WX    TMP DP  RH WIND       PRES   REMARKS
GOODLAND       CLOUDY    59  27  29 NW18G26   30.09R
HAYS           SUNNY     50  28  43 SW13G18   30.09S
HILL CITY      CLOUDY    50  36  58 SE7       30.07F
RUSSELL        SUNNY     44  31  60 S12       30.09F
$$

KSZ061>065-074>080-084>089-112300-
SOUTHWEST KANSAS

CITY           SKY/WX    TMP DP  RH WIND       PRES   REMARKS
DODGE CITY     SUNNY     58  30  34 SW14      30.08F
ELKHART          N/A     67  23  19 S9          N/A
GARDEN CITY    SUNNY     62  28  27 SW13      30.06F
GREAT BEND     SUNNY     52  30  43 S9        30.10F
LIBERAL        SUNNY     64  30  27 S13       30.09F
PRATT          SUNNY     49  28  42 S7        30.11F
$$

KSZ066>073-081>083-090>101-112300-
SOUTHEAST KANSAS

CITY           SKY/WX    TMP DP  RH WIND       PRES   REMARKS
CHANUTE        MOSUNNY   45  24  43 E7        30.16F
COFFEYVILLE    PTSUNNY   48  24  39 E7        30.17F
HUTCHINSON     SUNNY     46  26  45 VRB5      30.14F
MEDICINE LODGE   N/A     52  28  39 SE7       30.13S
NEWTON         SUNNY     45  25  45 SW5       30.16S
PARSONS        PTSUNNY   47  24  40 CALM      30.17F
WICHITA INTL   PTSUNNY   47  25  42 SW6       30.15F
WICHITA JABRA  SUNNY     47  23  38 MISG      30.14F
WINFIELD       CLOUDY    51  25  36 CALM      30.16F
$$

KSZ007>012-019>026-033>040-048>060-102>105-112300-
NORTHEAST KANSAS

CITY           SKY/WX    TMP DP  RH WIND       PRES   REMARKS
CONCORDIA      CLOUDY    31  25  78 S8        30.14F
EMPORIA        MOSUNNY   41  23  48 SW3       30.16S
LAWRENCE       CLOUDY    38  22  52 S3        30.21R
MANHATTAN      CLOUDY    40  24  53 CALM      30.17F
MARYSVILLE     CLOUDY    34  23  64 S10       30.15F WCI  26
OLATHE IND     MOSUNNY   38  22  52 S6        30.20F
OLATHE EXE     MOSUNNY   37  21  52 E6        30.20S
SALINA         SUNNY     42  26  53 S6        30.16F
TOPEKA BILLARD CLOUDY    39  21  48 CALM      30.20R
TOPEKA FORBES  CLOUDY    41  23  48 CALM      30.19R
$$



USA.gov is the U.S. government's official web portal to all federal, state and local government web resources and services.